Theta_e
324 324 331 340 343 346 347 348 348 349 347 348 348 348 347 347 347 346 348 348 348 348 348 348 348 349 349 349 348 348 348 349 349 348 348 348 348 348 349 349 349 349 349 349 349 348 347 347 347 347 348 348 348 348 348 349 350 351 352 356 357 356 356 355 355 354 353 351 352 356 356 356 356 353 353 355 355 353 353 353 353 353 351 352 356
319 327 333 334 339 344 346 347 347 347 348 348 348 348 348 348 348 347 347 347 346 349 349 348 348 348 348 348 348 348 348 348 348 348 348 348 348 348 348 348 349 349 349 349 348 348 348 347 347 347 346 346 347 347 349 349 352 353 356 356 357 358 357 356 355 354 353 352 353 354 354 356 355 355 355 354 355 353 351 351 351 350 348 354 355
321 321 324 328 334 339 342 345 346 346 347 348 347 347 347 347 347 347 348 347 347 346 346 348 349 348 348 349 349 349 349 348 348 348 349 348 349 349 348 348 348 348 349 348 347 347 346 346 346 346 346 346 347 347 349 350 352 353 355 356 357 357 357 356 355 353 353 352 352 351 350 352 356 356 355 354 355 353 351 350 350 350 349 355 355
314 316 319 324 330 335 339 341 342 343 344 345 346 346 347 347 347 347 347 346 347 347 346 347 346 347 348 347 348 349 349 349 348 347 348 349 349 349 350 349 349 349 348 348 348 347 348 348 348 348 347 349 348 347 348 350 351 352 354 355 356 355 356 355 354 352 352 352 351 349 348 347 349 354 355 354 355 354 351 349 349 352 354 355 355
310 312 314 318 323 331 336 338 339 340 341 342 343 344 345 345 345 345 346 346 347 346 347 347 347 349 348 348 348 348 348 347 348 349 349 349 349 349 349 348 349 349 349 350 349 349 350 349 349 349 348 350 350 349 349 350 350 352 355 355 354 354 355 354 353 352 351 350 349 348 347 346 348 353 356 355 355 353 350 350 350 354 354 355 355
307 309 311 315 320 326 334 336 337 338 339 340 340 341 341 341 342 342 343 344 345 346 346 346 347 347 348 348 348 349 348 347 348 348 349 349 349 346 347 346 347 348 347 349 349 349 350 350 350 349 349 350 350 350 349 349 349 352 353 354 354 353 353 354 353 351 350 348 347 344 345 345 347 349 355 355 355 353 351 351 351 354 354 356 355
305 307 308 311 317 325 330 332 335 335 336 337 337 337 337 338 339 341 341 342 343 344 344 344 345 345 346 346 347 347 348 347 346 345 346 346 346 344 347 346 346 347 348 349 348 348 349 348 349 349 349 350 350 350 350 349 350 350 352 354 352 353 353 353 351 350 348 346 346 343 345 346 346 346 353 355 355 352 352 353 353 353 354 355 355
303 304 305 308 314 325 327 329 330 332 332 332 332 332 333 334 335 336 337 338 339 341 342 343 344 344 344 345 345 345 346 347 347 346 344 344 345 344 345 347 348 348 347 350 348 347 348 348 349 348 348 348 350 350 350 350 349 350 350 353 354 353 352 352 350 348 347 348 345 345 346 347 346 346 351 355 356 354 353 353 353 353 353 355 353
301 302 303 305 312 323 323 325 327 328 328 328 328 329 329 330 330 331 332 333 334 335 337 338 340 341 342 343 343 344 345 345 346 345 345 345 344 345 345 343 344 346 347 347 347 350 349 348 348 348 348 348 348 349 350 350 351 350 350 351 353 352 351 350 348 345 346 346 345 345 345 348 346 345 349 355 355 353 351 353 353 354 353 353 350
300 300 301 303 310 321 322 323 324 325 326 326 325 326 327 327 327 328 329 330 330 331 332 335 337 338 339 339 340 343 344 344 344 343 343 344 344 344 345 344 343 344 348 346 346 348 350 348 347 347 347 347 347 348 349 349 350 349 349 350 351 352 350 349 347 343 346 345 346 345 345 345 346 345 348 354 354 354 351 347 348 348 349 350 349
299 299 300 302 308 319 320 321 321 322 323 323 323 324 325 325 325 326 327 327 327 328 330 332 332 331 331 333 336 338 340 342 341 342 342 342 342 343 343 343 343 344 344 346 348 349 347 346 346 347 347 347 348 348 349 349 349 349 349 350 351 350 350 348 344 345 344 345 347 346 346 343 345 346 349 353 354 353 345 344 345 347 349 350 351
298 298 299 301 310 315 317 317 318 320 321 321 322 323 323 323 324 324 324 325 326 326 328 328 327 327 328 331 333 335 337 339 338 339 340 341 340 341 341 341 342 342 343 342 343 346 347 347 346 346 346 346 348 348 348 348 349 350 350 349 349 349 348 346 344 344 342 343 345 346 343 343 341 344 351 353 355 353 346 344 344 349 350 348 352
297 298 298 299 302 311 314 315 315 316 318 319 320 321 321 321 322 322 322 323 324 324 325 325 324 324 326 328 328 328 331 333 335 336 335 337 338 339 340 340 340 341 342 342 341 343 343 342 343 346 345 344 346 347 348 348 349 349 349 349 349 348 345 341 343 343 343 341 343 342 341 340 342 344 350 352 352 354 350 350 349 350 350 349 351
296 297 297 298 301 307 311 311 312 313 315 317 318 318 319 319 320 320 320 321 321 321 322 322 321 322 324 324 324 323 324 325 326 326 330 333 334 335 336 338 339 340 340 341 341 341 344 344 343 345 345 345 345 347 348 348 347 347 347 349 349 348 343 338 338 340 342 342 342 342 341 339 341 345 350 348 351 352 350 351 350 349 350 349 349
296 296 297 297 297 300 307 309 309 310 311 314 315 316 317 317 318 318 318 318 318 318 319 318 318 319 321 321 320 320 320 321 322 323 324 324 326 326 328 333 336 338 339 339 339 340 340 342 344 343 340 343 344 345 346 347 347 347 347 346 345 343 340 342 341 340 341 342 343 341 340 340 342 346 350 348 349 349 349 350 351 349 349 349 349
297 295 295 295 296 297 298 305 307 307 308 310 311 312 313 314 315 315 316 316 316 316 316 316 316 316 318 317 317 316 316 317 318 320 320 319 319 320 322 326 329 331 332 332 333 336 338 340 341 340 339 340 342 343 345 345 346 346 345 344 342 340 337 335 340 339 340 342 343 342 341 341 344 348 350 347 348 349 350 349 350 350 350 350 349
297 297 294 294 295 296 296 298 302 304 305 305 307 309 310 311 312 312 313 313 313 313 313 313 313 313 314 314 313 312 312 313 315 316 317 316 317 317 319 321 322 323 324 325 328 330 333 336 337 338 339 339 340 341 343 344 345 344 343 342 340 338 335 331 338 339 341 339 339 341 342 342 342 347 350 348 348 350 350 349 349 351 350 349 350
295 294 293 293 293 295 296 296 296 296 296 299 303 306 307 308 309 309 309 310 310 310 310 310 310 310 310 310 309 308 309 309 311 312 313 313 313 313 316 318 319 320 320 321 325 328 330 332 330 331 334 337 338 339 339 340 343 343 341 340 339 338 335 331 336 337 338 335 337 336 339 338 341 346 350 351 348 348 351 348 349 349 348 346 349
293 292 293 292 292 293 294 294 296 295 296 296 295 298 305 305 306 306 307 308 308 308 308 307 306 307 308 308 306 305 305 305 307 308 309 309 309 309 312 316 317 318 318 319 322 325 325 324 325 326 328 330 334 336 336 337 336 338 340 338 335 332 329 330 333 335 335 335 335 335 337 338 341 345 349 351 349 347 347 347 347 348 349 349 348
292 292 292 292 292 292 293 294 294 294 295 295 295 295 302 303 303 304 304 305 305 305 305 304 303 304 304 305 304 302 301 300 304 303 305 306 306 305 309 312 314 315 315 318 321 321 321 321 323 326 327 327 328 329 331 333 335 335 336 335 332 327 333 331 332 334 335 335 334 334 336 339 342 346 348 350 348 345 348 348 345 347 348 349 348
292 290 291 291 291 291 292 293 293 293 294 295 295 295 299 301 299 301 302 303 303 303 303 302 302 300 302 302 301 298 296 297 297 300 303 302 303 305 306 309 311 311 312 314 317 318 318 320 322 324 324 324 322 324 328 331 333 333 333 331 327 333 333 331 331 333 334 335 333 334 336 339 343 346 348 350 350 345 346 346 345 346 346 345 346
289 290 290 290 290 290 290 292 292 293 293 295 296 296 296 298 293 294 296 298 300 301 297 297 300 295 300 298 297 297 296 295 297 302 298 300 300 303 304 307 308 307 308 311 313 314 316 319 321 321 321 319 316 316 320 323 328 330 328 325 329 333 332 332 332 333 333 335 334 334 336 339 343 347 349 350 350 348 347 347 344 346 345 344 344
287 288 289 290 290 290 290 291 291 292 292 292 295 295 293 292 293 293 296 298 297 296 293 295 293 294 295 295 297 295 295 295 297 300 301 302 299 302 303 304 304 304 306 308 309 311 313 316 318 318 316 314 312 313 315 318 321 322 324 329 330 331 331 332 332 332 332 333 333 333 335 339 343 346 348 350 350 348 344 347 346 344 344 344 346
287 288 289 291 289 290 289 290 291 291 292 292 294 292 293 292 292 292 293 293 293 294 292 292 293 293 294 295 295 295 295 294 300 300 300 295 296 299 301 301 301 301 303 304 306 307 309 313 314 314 312 310 308 310 311 313 316 319 325 329 330 330 329 330 332 332 331 331 332 332 334 338 342 346 348 349 350 351 345 346 346 345 344 343 347
287 290 289 289 288 289 289 289 290 290 291 291 292 292 293 291 291 291 292 291 292 292 292 292 292 292 293 294 294 294 294 294 294 294 294 294 294 294 295 295 295 295 301 298 299 300 304 307 307 307 306 305 305 306 308 310 311 315 318 323 328 330 329 329 331 332 332 332 332 330 332 336 340 344 347 349 349 348 346 343 345 346 346 345 347
289 286 286 286 288 288 288 288 289 289 290 290 291 294 292 290 291 292 292 291 292 291 291 291 291 292 292 293 294 292 293 293 293 293 293 293 293 293 294 294 294 294 296 296 297 299 301 304 305 304 303 303 303 304 306 307 309 311 313 316 320 325 330 330 331 332 333 333 333 329 331 334 338 342 345 348 348 348 346 345 344 347 344 346 348
285 285 286 286 290 287 288 288 288 289 290 290 290 290 290 290 290 293 292 290 292 291 291 290 291 291 291 292 292 291 291 291 292 292 292 292 292 293 293 293 293 293 294 295 296 298 300 302 302 302 302 301 302 303 304 305 307 308 310 313 317 320 325 329 331 331 332 333 330 328 329 331 336 340 343 345 346 347 348 345 343 344 348 347 349
284 285 285 285 287 286 287 287 287 290 288 290 290 289 289 290 291 293 290 292 293 290 290 290 291 290 291 291 293 291 291 291 291 291 292 292 292 293 292 292 292 293 294 294 295 296 298 300 301 300 300 300 300 301 302 304 305 307 309 311 314 316 320 326 330 331 331 331 331 328 327 330 332 335 340 345 347 347 347 347 346 344 346 346 347
284 285 285 285 285 288 287 286 285 287 288 289 288 289 289 289 289 289 288 296 291 290 290 291 290 290 290 291 292 291 290 291 290 291 291 291 292 292 292 292 292 292 293 293 294 295 296 298 299 299 299 299 299 300 301 302 303 304 306 308 310 313 316 320 326 330 330 330 330 328 326 328 331 333 336 341 345 347 348 349 349 347 343 345 347
284 284 285 285 285 287 286 285 286 288 290 288 288 289 288 288 288 289 288 293 288 290 290 289 289 288 289 290 290 291 290 290 290 290 290 290 291 291 291 291 291 292 292 292 294 294 295 296 297 298 298 298 299 299 300 301 301 302 304 306 307 310 313 317 322 326 329 330 330 329 324 325 329 333 335 337 341 345 346 349 350 348 346 342 344
285 285 285 285 288 285 285 285 286 290 289 288 288 288 288 287 289 288 288 288 289 291 290 289 289 288 290 290 290 290 291 290 290 290 290 290 290 290 290 291 291 291 292 292 293 294 295 296 297 297 297 298 298 299 300 300 300 301 302 304 306 308 310 314 318 323 327 330 330 329 329 323 325 328 331 335 338 340 343 346 348 348 347 344 342
284 284 285 286 285 284 285 286 286 288 288 287 288 288 288 287 289 288 287 289 290 289 288 289 290 288 289 289 289 289 291 289 289 290 290 289 289 289 289 289 289 290 291 291 292 293 294 295 296 297 297 297 298 299 299 299 299 300 301 302 304 305 307 310 313 317 322 327 328 328 329 328 324 325 327 331 336 338 341 343 344 345 345 346 342
283 284 284 285 284 285 288 286 287 287 285 287 287 287 287 287 287 287 288 290 288 288 287 287 287 288 288 288 288 288 289 288 288 289 289 288 287 287 287 287 288 289 289 290 291 292 293 294 294 296 296 297 297 297 299 298 298 299 300 301 302 302 304 307 309 312 317 323 328 328 328 327 328 323 323 325 330 334 337 340 342 344 343 345 344
282 284 283 284 286 287 288 288 289 287 288 288 289 287 287 287 289 287 288 288 287 287 288 287 287 288 287 287 287 287 288 288 288 287 287 286 286 286 286 286 287 288 288 289 289 290 291 292 293 294 295 295 295 296 297 297 297 298 299 300 300 301 302 303 306 308 311 316 323 327 328 327 327 327 327 323 324 327 332 336 339 341 341 343 343
285 282 283 283 284 284 289 286 289 286 286 285 286 286 288 287 286 286 287 287 288 286 285 286 286 286 286 286 286 287 287 287 286 286 285 285 285 285 285 286 287 287 287 287 287 288 289 290 292 292 293 294 295 295 296 296 296 297 298 299 299 300 300 301 303 305 308 312 318 324 327 327 326 326 326 326 319 320 325 331 336 339 341 341 342
282 282 283 284 283 282 286 285 285 285 285 287 287 286 286 285 286 290 287 286 286 285 285 285 286 285 285 285 285 286 286 285 285 285 284 284 284 284 285 285 286 286 286 286 287 286 287 288 291 292 292 293 294 294 295 295 296 296 297 298 298 299 299 300 301 303 306 309 313 319 324 326 326 326 321 325 326 322 319 324 330 334 337 339 341
281 281 282 282 283 282 286 285 284 285 285 284 284 285 285 285 285 285 285 285 284 284 284 285 285 284 284 284 285 286 284 284 284 284 283 283 283 283 283 284 284 284 284 284 285 286 285 286 287 291 292 292 293 293 294 295 295 296 296 297 297 298 298 299 300 301 304 306 309 313 320 325 325 318 324 324 325 325 321 320 324 327 329 334 338
281 284 282 281 281 282 283 285 285 286 285 285 285 285 285 285 284 284 287 285 283 284 284 284 284 283 284 284 284 284 285 283 283 283 282 283 283 282 282 282 283 283 283 283 283 284 285 285 285 287 289 291 292 293 293 294 295 295 296 296 297 298 298 299 300 300 301 302 304 309 314 321 326 325 325 325 325 325 325 323 320 321 321 326 334
280 279 279 280 282 282 284 285 287 285 284 284 284 285 284 283 283 283 283 283 283 283 284 283 283 283 283 284 284 283 283 282 283 283 282 282 281 281 281 281 282 282 281 282 282 283 284 284 284 284 285 287 289 292 293 294 294 295 295 296 297 297 298 299 299 299 299 301 303 306 311 317 323 326 325 325 325 325 325 325 325 325 325 321 330
279 278 282 281 281 281 282 282 283 283 283 283 284 283 282 282 282 281 281 282 282 283 284 282 283 282 284 283 283 282 282 283 282 282 281 281 281 281 281 281 281 281 281 281 282 282 283 283 283 284 284 286 288 291 293 293 294 294 295 296 296 297 297 297 298 298 299 300 303 306 309 313 317 323 325 326 325 325 325 326 324 326 326 324 323
279 278 279 280 280 281 283 281 282 282 284 282 282 282 281 281 281 281 280 281 281 283 283 282 283 282 283 283 282 282 281 281 282 281 281 281 281 280 280 280 280 281 281 281 282 283 284 284 284 284 284 284 286 290 293 294 293 292 294 294 294 295 296 296 296 297 298 299 301 304 308 311 315 320 323 326 326 325 325 326 326 326 326 326 324
279 278 279 280 280 280 280 281 281 282 282 282 282 283 281 281 280 280 280 281 281 280 281 281 282 284 282 282 282 281 281 281 281 281 281 280 279 279 279 279 280 280 281 282 283 284 282 282 282 282 285 285 286 290 293 294 291 290 289 290 291 293 294 294 294 295 296 297 299 301 305 309 313 318 322 324 324 325 326 326 326 326 326 325 325
279 280 279 278 279 279 280 281 281 281 282 282 284 281 281 282 281 281 280 280 281 282 281 282 283 282 281 281 281 281 281 280 280 281 280 280 279 279 279 279 279 281 280 280 280 279 280 280 281 282 283 286 287 290 292 294 290 291 291 290 287 287 290 291 294 295 297 298 300 303 306 309 313 317 321 323 323 324 325 325 326 326 326 325 325
278 278 278 279 279 281 280 280 281 281 281 281 285 283 282 282 283 282 281 281 280 283 283 282 281 280 280 280 280 280 280 280 279 279 280 279 279 279 279 279 279 280 279 278 278 278 279 280 280 282 285 285 287 288 292 293 293 292 286 287 287 287 284 286 289 293 298 299 302 307 312 314 316 318 321 322 322 323 324 325 325 326 326 325 325
278 278 278 279 280 280 280 280 280 280 280 283 283 281 282 280 280 280 281 280 280 280 279 278 280 280 281 279 279 279 280 279 279 279 279 279 279 279 279 279 278 278 279 278 278 278 279 279 280 280 281 282 283 286 289 291 292 294 291 288 285 284 284 286 289 290 293 294 297 301 303 304 312 319 320 322 323 323 324 324 325 326 326 325 325
278 278 278 279 279 279 279 279 279 280 280 280 281 281 281 279 278 277 277 277 277 277 277 277 278 278 278 279 279 279 279 279 279 279 278 279 278 278 278 278 278 278 278 278 278 279 279 279 279 279 279 281 282 283 284 288 291 293 293 293 291 287 286 287 288 283 291 293 294 295 295 299 304 310 318 321 322 322 322 323 324 325 326 326 326
278 278 277 278 278 279 278 279 279 279 280 280 280 281 279 278 278 277 277 277 276 277 278 278 278 278 279 278 278 278 278 278 278 278 278 278 278 278 278 278 278 278 279 278 278 278 278 279 280 280 280 281 282 281 282 284 287 289 292 293 293 293 292 289 285 287 285 290 293 294 296 299 300 301 303 309 319 321 322 322 323 324 325 326 326
279 277 277 277 278 278 278 278 279 281 280 280 279 280 279 278 277 277 278 277 277 277 277 278 278 279 278 278 278 278 278 278 278 278 278 278 278 278 278 277 277 277 278 278 277 278 279 280 280 281 281 281 281 280 281 284 284 285 289 290 291 292 292 292 292 289 288 286 288 293 294 295 298 301 302 304 308 318 321 322 323 323 324 325 326
277 277 277 278 278 278 278 278 278 278 279 278 280 279 280 279 278 277 276 278 278 278 278 279 278 277 276 277 277 277 277 277 278 277 277 277 278 277 277 277 277 277 278 278 278 278 278 279 279 279 279 279 279 280 281 282 284 284 286 287 289 290 291 292 292 293 290 288 288 289 289 293 296 298 300 303 307 312 319 322 322 322 322 323 325
277 278 277 277 277 277 278 278 277 277 278 278 278 278 277 279 277 276 276 276 277 277 276 276 276 276 275 276 276 276 276 276 277 277 277 277 277 277 277 277 276 277 278 277 277 277 277 278 279 279 279 279 280 280 280 281 283 284 286 286 286 286 288 290 292 292 292 292 288 288 289 289 289 292 298 300 302 306 312 320 321 321 322 323 324
276 276 277 277 276 277 276 276 277 277 277 277 277 277 277 277 276 276 276 276 276 276 275 275 275 275 275 275 275 275 276 276 276 276 276 276 276 277 277 276 277 277 277 276 276 276 277 277 278 279 279 279 280 280 281 283 283 284 285 285 285 286 286 287 290 291 290 289 288 288 289 290 290 291 294 298 302 305 308 314 320 321 322 323 324
Wind_Speed
13 14 12 13 17 19 20 18 18 18 15 13 12 11 11 11 10 9 8 5 7 7 6 6 6 6 6 6 6 7 7 7 8 7 7 7 8 9 10 11 11 11 11 10 10 9 9 10 10 10 10 10 10 11 11 11 11 11 10 9 7 8 10 10 9 9 9 9 12 11 11 10 9 9 10 8 10 10 9 10 11 9 7 8 13
12 11 8 11 20 20 20 19 19 19 19 17 16 14 12 10 7 8 8 10 10 8 8 8 8 7 7 7 7 8 8 9 10 9 8 8 8 8 8 10 10 10 11 11 12 12 11 11 12 12 12 11 10 10 11 12 10 10 8 8 8 8 8 8 9 8 9 8 7 8 7 8 9 10 10 9 11 11 10 9 12 9 5 9 15
7 8 11 14 18 17 18 18 19 19 18 18 18 18 17 16 13 12 10 8 8 11 14 12 9 9 8 9 8 9 9 8 7 9 11 9 8 8 9 9 10 10 10 10 11 11 12 12 11 12 12 12 11 10 9 10 10 8 8 8 8 8 7 7 6 7 8 8 8 8 7 7 8 10 11 10 11 13 11 11 11 11 7 13 13
10 10 9 10 14 16 17 18 18 18 19 19 19 19 19 19 20 17 14 11 9 8 8 11 13 13 12 11 11 10 10 10 10 11 12 11 9 9 8 9 10 11 10 10 10 11 11 12 12 12 11 10 10 12 11 9 9 9 8 7 7 8 7 6 6 7 9 9 9 7 4 3 4 9 11 11 13 13 10 11 11 12 14 14 15
8 8 8 8 9 12 17 17 18 18 19 19 19 20 20 20 21 20 19 17 15 12 10 11 12 13 14 15 12 13 11 11 8 9 9 11 12 9 9 10 11 11 11 12 11 12 12 12 13 13 13 10 9 10 11 10 10 9 7 7 7 7 7 7 6 7 8 8 9 6 4 3 4 9 12 12 13 13 12 12 13 15 13 16 16
7 7 8 8 8 11 17 18 18 18 18 19 19 19 20 20 21 20 21 21 20 18 16 16 16 15 14 14 15 16 16 14 13 10 11 11 12 11 8 8 11 13 14 15 13 13 13 14 14 15 14 12 10 9 9 11 12 10 9 8 7 6 7 6 7 6 7 8 8 3 3 3 4 5 12 13 13 13 12 14 16 15 15 17 17
5 6 7 8 7 10 16 17 18 19 19 20 20 19 20 20 20 21 21 21 21 21 21 20 18 18 17 16 16 15 15 15 13 13 14 16 15 13 9 8 10 11 13 16 13 13 14 14 14 16 16 14 12 10 10 11 11 12 11 9 9 8 7 6 7 7 8 6 4 3 3 3 4 3 9 12 13 15 16 17 17 17 18 18 19
5 6 7 7 6 10 17 18 18 19 20 20 20 20 20 20 19 19 20 21 22 22 22 22 21 21 20 19 18 18 18 17 16 15 13 14 14 15 13 10 11 12 13 14 15 14 14 13 13 14 15 15 13 12 11 11 13 12 11 9 9 8 8 7 7 7 8 5 3 3 4 3 4 4 8 13 14 15 17 20 19 19 19 19 15
6 6 6 7 7 15 17 18 19 20 20 20 20 21 20 20 20 20 20 20 20 20 20 21 22 22 22 22 22 21 21 21 20 17 16 15 15 14 15 14 16 16 14 15 14 15 15 14 14 14 15 15 14 13 12 10 10 11 12 11 10 9 9 9 8 8 6 4 4 4 4 3 3 5 8 14 14 15 18 18 18 21 21 18 15
5 5 6 6 7 16 17 19 20 20 20 20 20 21 21 21 21 21 21 20 20 20 20 20 20 22 22 22 22 22 21 21 21 21 19 17 17 17 17 17 16 17 18 17 15 15 15 15 15 15 15 15 14 13 12 11 12 15 14 12 11 11 11 10 9 8 5 4 4 5 5 5 4 5 9 14 15 16 16 15 10 11 10 16 15
6 6 6 7 9 16 17 19 19 20 20 20 20 20 20 20 20 21 20 20 20 20 20 20 21 21 21 21 21 22 22 22 21 21 21 21 21 19 18 18 18 19 19 19 19 17 17 16 16 16 15 15 13 12 11 10 13 15 15 13 11 11 10 11 10 5 5 5 5 5 6 9 8 7 14 16 17 15 13 12 13 11 12 14 16
6 6 5 5 9 16 17 18 19 19 19 19 20 20 20 20 20 20 20 20 20 20 20 20 21 21 21 21 21 22 22 22 23 22 22 22 21 22 21 20 20 20 20 19 19 20 20 19 17 17 17 15 12 11 12 12 13 14 13 13 12 10 10 10 7 5 4 5 6 6 6 7 6 9 16 17 16 15 16 15 16 16 14 17 17
6 5 5 5 5 14 16 18 19 19 19 19 19 20 20 20 20 21 20 20 20 20 20 20 21 21 21 21 21 22 22 22 22 23 24 23 23 23 23 23 22 21 21 20 20 20 20 20 19 18 18 17 13 11 12 12 12 12 13 11 10 10 9 9 6 6 6 5 5 6 8 7 7 12 18 19 16 14 18 18 18 17 17 18 21
5 6 6 5 6 11 16 17 18 19 19 19 19 20 20 20 20 20 20 21 21 20 20 21 21 21 21 21 21 21 21 21 21 22 21 23 23 23 23 22 22 23 22 21 20 21 21 22 21 20 19 18 15 14 12 11 12 13 13 11 10 9 10 8 7 6 6 6 7 8 8 7 8 13 18 19 17 15 16 17 16 19 19 20 21
5 5 5 5 5 6 13 16 17 19 20 20 20 20 20 20 20 20 20 20 20 21 21 20 20 20 20 20 21 21 21 21 21 21 21 22 23 24 23 24 23 23 24 25 24 22 21 21 22 21 22 21 19 17 16 13 13 13 14 13 11 9 10 6 6 5 6 7 7 8 8 7 12 16 16 19 19 16 19 17 18 18 20 21 21
4 4 4 5 5 5 5 10 15 17 19 19 19 20 20 20 19 20 20 20 20 20 20 21 20 20 20 20 20 21 21 21 21 21 21 22 22 22 22 22 23 24 24 24 23 24 23 24 24 23 22 22 23 22 18 16 14 14 14 14 13 10 10 8 5 5 6 6 7 8 9 9 16 16 16 18 21 19 18 19 21 20 22 20 24
5 4 5 5 5 4 5 5 9 13 13 16 18 19 19 19 19 19 19 19 19 20 20 20 20 20 20 19 20 20 20 20 21 21 22 22 22 22 22 21 21 22 22 23 23 23 22 23 22 22 22 22 22 22 23 19 16 15 14 15 15 13 11 9 6 5 6 6 7 8 9 8 14 17 17 19 23 22 19 20 21 21 23 24 23
4 4 5 4 5 4 5 5 6 6 6 9 12 16 18 19 18 18 18 18 19 19 19 19 19 19 18 18 18 18 19 19 19 20 21 21 21 22 22 21 21 21 22 22 22 22 22 23 23 23 23 22 21 22 21 22 20 16 15 15 15 15 11 10 5 6 6 8 9 7 6 9 12 17 17 19 22 22 20 21 21 21 24 24 22
4 4 4 4 4 4 5 5 5 5 6 6 6 8 15 16 17 17 17 18 18 18 18 18 18 18 18 17 16 15 15 16 18 18 19 19 20 20 21 21 22 22 21 21 21 21 22 22 22 22 22 23 23 23 22 22 20 22 18 14 15 14 13 8 5 6 7 8 7 7 8 13 16 18 20 20 22 22 23 23 22 23 24 23 24
3 4 4 4 3 4 4 5 6 5 5 5 5 5 8 13 13 14 15 16 17 17 16 15 13 13 14 14 14 9 9 8 14 11 16 18 18 17 19 20 21 21 22 22 21 21 21 22 21 21 21 22 22 23 23 21 19 19 19 17 14 15 10 5 6 7 7 8 7 7 10 15 18 19 22 21 21 22 24 22 23 25 25 24 24
3 3 4 4 4 4 5 6 5 5 5 4 4 4 5 9 7 9 11 12 13 14 14 11 10 8 8 8 7 7 7 7 7 8 10 9 15 17 19 19 20 20 21 21 21 21 21 21 20 21 21 21 21 21 18 19 18 17 18 18 17 10 7 6 6 6 6 7 8 8 13 16 18 21 23 22 22 22 25 23 26 25 19 22 23
3 4 4 3 4 4 4 5 5 5 5 5 4 4 4 6 5 4 4 6 7 8 6 5 7 5 8 6 6 6 6 5 6 8 7 8 8 14 17 19 20 20 20 21 20 21 21 21 19 20 21 20 20 11 12 15 17 15 15 17 13 8 7 7 7 7 8 8 8 10 15 18 18 20 23 23 23 23 24 22 26 26 25 27 26
4 4 4 4 4 3 4 5 4 4 5 4 4 4 4 4 5 4 4 5 4 4 4 4 4 5 5 5 5 5 5 5 6 8 7 10 9 13 15 16 17 18 19 19 19 20 20 20 19 19 19 18 10 8 9 10 11 16 15 10 7 8 8 8 8 8 8 9 9 13 16 18 19 20 22 23 24 23 24 20 23 25 21 28 25
1 1 2 3 4 4 3 3 4 4 4 4 4 5 5 4 5 4 5 4 4 3 4 4 4 4 4 5 5 4 4 5 6 9 8 7 8 10 13 13 13 13 17 11 13 15 20 17 18 18 11 7 8 8 8 8 9 9 10 9 8 9 9 9 8 8 8 9 10 15 17 18 19 20 23 25 25 23 22 25 24 23 26 27 27
1 1 1 3 3 3 3 4 4 4 4 5 5 6 6 6 5 5 5 4 4 4 4 4 4 4 5 4 4 4 4 5 4 5 5 6 6 7 8 8 8 8 10 8 8 9 9 9 9 9 7 8 8 8 8 8 8 9 9 9 10 10 9 9 9 9 9 9 10 16 18 20 19 20 23 25 26 25 25 27 27 26 28 27 28
1 3 3 3 4 3 3 4 4 5 5 5 5 5 6 6 7 7 7 6 6 6 5 5 5 5 4 4 4 4 5 5 4 5 5 6 6 7 7 7 8 8 7 8 7 8 8 8 8 9 9 8 8 8 8 8 9 9 9 9 9 10 10 9 9 10 9 9 11 16 19 20 21 21 21 25 26 26 26 28 28 29 29 27 28
3 3 3 3 3 4 5 5 6 6 6 5 6 6 6 6 6 6 6 7 6 6 6 6 5 4 4 4 5 6 5 6 6 6 6 5 5 6 7 6 7 7 8 8 8 8 8 8 8 8 8 9 9 8 8 8 8 9 9 9 9 10 10 11 11 10 10 10 11 17 18 20 21 22 22 27 28 27 27 27 28 28 24 26 26
2 2 3 3 3 5 4 4 4 5 4 5 4 5 5 5 5 5 6 6 6 6 6 6 5 5 5 5 4 4 5 6 6 6 7 6 6 6 5 6 6 6 6 6 8 8 8 7 8 8 9 8 9 9 8 8 8 8 9 10 10 10 10 11 12 12 12 11 11 15 18 20 21 20 23 25 28 28 28 26 28 30 29 30 29
1 0 2 2 3 2 3 3 3 3 3 2 3 3 3 4 4 5 5 5 5 6 5 5 6 6 5 5 4 6 5 5 4 5 5 6 6 7 7 7 6 7 7 7 7 8 8 8 8 8 8 9 8 9 9 9 8 8 8 10 10 10 10 11 11 11 11 10 10 13 19 20 22 23 21 24 28 29 30 30 29 30 31 30 28
2 1 1 1 2 2 3 3 2 2 2 2 3 3 4 3 4 4 5 4 5 5 5 6 6 5 6 4 5 4 5 5 5 5 5 5 5 6 7 7 8 7 7 8 7 7 8 9 9 8 8 8 9 9 8 9 9 8 8 9 9 10 10 10 11 11 12 13 12 12 19 20 22 22 21 24 27 30 30 29 29 30 28 29 30
0 1 1 2 2 3 3 3 3 2 2 3 3 3 3 3 4 4 4 5 5 5 5 6 5 5 5 5 5 5 6 6 6 6 5 5 5 6 7 7 8 8 8 8 8 8 8 8 9 9 9 9 8 8 9 9 9 9 8 9 9 9 10 10 11 12 12 12 12 10 13 20 21 22 22 22 25 28 29 30 31 29 29 29 30
1 1 0 1 2 2 2 3 3 3 3 4 3 4 4 3 4 4 4 5 5 5 5 5 5 5 4 4 4 5 4 4 4 4 5 6 6 7 7 7 7 8 9 10 11 10 9 9 9 8 8 9 9 8 7 8 9 9 9 10 9 9 9 10 11 11 12 12 12 11 11 13 20 22 23 23 25 28 27 29 30 29 31 28 32
3 2 0 1 1 2 2 3 3 4 4 3 4 3 4 3 4 4 4 4 5 5 5 5 6 4 4 4 4 4 3 4 5 5 6 6 6 6 6 6 6 7 8 10 12 11 10 10 10 9 9 8 9 9 7 8 9 9 9 10 9 10 9 9 10 10 12 12 12 13 12 11 13 19 23 23 24 25 28 28 29 30 32 27 32
3 1 1 1 1 1 1 2 3 4 3 3 3 3 4 3 3 3 4 4 4 5 5 5 4 4 3 3 4 4 4 6 6 6 6 6 7 6 7 7 7 7 8 8 9 9 10 11 11 11 10 9 9 9 8 9 8 8 8 9 9 10 9 10 10 10 11 12 12 12 13 12 11 12 14 21 23 23 25 25 28 30 30 29 30
1 1 1 0 2 2 1 2 1 3 2 3 3 3 3 4 4 3 3 3 3 4 5 5 4 3 2 3 4 4 5 5 5 5 5 5 5 6 6 7 8 8 8 7 8 8 9 11 10 11 11 11 10 10 9 10 10 10 9 8 9 10 10 11 11 11 11 11 11 12 13 12 11 12 13 12 15 22 24 25 26 28 29 30 33
3 2 0 0 0 1 0 1 1 2 2 3 3 3 3 4 3 3 3 3 3 4 5 5 4 3 2 3 4 4 4 4 4 4 4 4 5 5 6 6 8 8 8 8 8 9 9 10 10 10 12 12 11 13 9 11 10 11 9 9 9 9 11 11 12 12 11 10 11 12 13 13 13 12 13 12 11 13 22 25 26 27 27 26 27
3 3 2 1 1 2 1 1 2 2 3 3 3 3 3 3 3 3 4 3 4 5 4 4 4 4 2 3 3 4 4 4 4 4 4 4 5 5 6 6 7 7 7 8 8 8 9 10 11 10 11 13 12 13 12 10 11 12 11 11 11 10 10 11 12 12 11 12 12 13 13 14 15 16 13 13 12 12 16 22 25 27 27 28 28
4 3 3 4 4 3 2 2 3 3 3 3 3 3 4 3 4 4 3 3 4 4 4 3 4 4 2 2 3 3 3 4 4 5 5 5 5 5 6 6 7 7 7 7 7 7 8 9 11 10 12 13 13 12 12 11 11 12 13 13 12 11 12 11 11 12 12 14 13 13 13 13 13 13 13 14 14 13 12 16 23 26 28 27 29
4 4 3 3 3 3 3 2 2 3 3 3 3 3 4 4 3 3 3 4 4 4 4 4 5 4 2 2 3 3 3 4 5 6 6 7 7 7 7 8 7 7 7 7 7 7 7 8 11 13 11 13 14 14 12 11 12 13 14 15 13 14 12 12 11 12 13 14 14 14 12 13 13 14 14 15 14 14 13 12 11 12 18 30 31
4 3 3 3 3 2 2 2 3 3 2 2 2 3 3 3 4 4 3 3 4 4 4 4 5 5 2 2 2 2 3 4 4 5 5 6 7 7 8 9 9 9 10 11 10 8 10 11 11 12 14 13 12 12 11 11 12 14 15 15 14 14 15 14 14 14 13 14 14 12 12 13 13 14 15 14 14 14 14 13 12 12 13 19 29
4 4 4 4 4 4 2 3 3 2 2 2 2 2 2 4 2 3 5 5 5 5 4 4 4 4 1 1 1 1 3 4 5 5 7 7 6 7 8 8 8 8 8 9 9 10 9 10 11 11 13 14 12 9 10 9 12 14 11 13 15 13 14 14 15 15 15 15 14 14 13 13 14 14 14 14 15 14 14 13 13 12 13 12 16
5 4 5 5 4 3 4 4 2 2 3 3 3 2 2 2 3 5 5 6 6 5 6 5 5 4 2 3 2 2 3 4 5 5 6 6 7 7 7 7 7 8 8 8 8 9 12 11 11 13 9 12 13 8 9 8 11 11 13 12 13 13 12 14 16 17 17 15 15 15 14 15 15 15 14 14 15 15 14 13 13 13 13 13 13
7 7 5 3 3 4 4 3 3 3 3 3 2 2 2 2 2 4 4 5 5 5 5 6 6 5 4 4 4 4 5 6 6 6 5 5 6 6 6 6 6 7 8 8 8 10 8 11 11 11 13 9 10 8 9 8 12 10 10 13 15 13 11 9 10 12 13 14 13 14 15 16 18 16 14 13 14 14 14 14 14 14 14 14 13
5 4 4 5 3 3 3 3 3 3 3 3 2 2 3 3 4 5 6 6 6 4 5 5 5 3 5 3 3 3 3 4 4 5 5 6 6 7 7 6 7 7 8 10 9 9 9 9 10 12 12 15 10 9 7 9 9 9 11 8 11 9 16 13 7 6 7 10 11 11 11 13 15 16 13 15 15 14 14 14 16 16 16 15 14
7 7 6 5 4 4 4 3 3 3 3 3 3 2 2 3 3 4 5 5 4 5 4 5 4 4 4 3 4 3 4 4 5 5 5 5 5 6 7 7 7 8 7 9 9 9 9 9 10 12 13 13 17 14 12 10 12 10 12 11 11 11 13 15 9 13 10 9 10 9 8 11 12 13 13 15 15 15 15 15 15 15 16 16 15
8 7 6 5 4 3 3 3 3 3 3 3 3 2 2 3 3 5 6 4 6 5 5 7 8 7 7 4 4 3 4 4 4 5 5 5 6 6 7 7 7 7 7 8 9 9 8 9 8 9 13 13 14 16 17 11 12 13 15 15 13 12 11 8 10 16 9 8 13 15 17 16 13 10 9 13 17 15 15 15 15 15 15 15 15
9 6 4 4 3 3 3 3 3 3 3 3 3 2 3 2 3 4 4 5 6 5 4 5 6 7 5 7 6 5 5 6 6 5 6 6 6 7 7 7 7 7 7 8 9 10 9 8 8 9 10 12 13 15 18 15 11 13 14 15 16 16 15 12 14 12 18 14 10 9 11 10 8 10 9 8 12 16 15 14 16 16 16 14 14
8 5 4 3 4 3 3 3 3 3 3 3 3 3 3 3 3 4 4 5 5 7 6 6 5 5 7 8 7 6 6 5 7 6 7 7 7 8 7 8 8 7 7 8 9 10 10 9 8 10 11 12 14 14 16 15 13 12 10 13 15 16 17 18 18 17 17 18 21 11 11 15 12 10 10 9 10 12 16 15 16 16 14 16 15
6 6 6 4 3 3 2 2 3 3 3 3 3 3 3 3 4 4 5 5 5 6 5 6 6 6 7 7 7 7 7 6 6 7 7 7 7 8 8 8 8 8 7 9 9 10 13 13 10 9 9 12 13 15 16 16 14 13 11 12 14 14 14 14 16 16 15 15 19 18 15 11 9 11 10 9 8 9 13 17 16 17 15 14 15
6 4 3 3 3 2 2 2 3 3 3 3 3 3 3 3 3 4 5 6 5 6 5 7 6 5 7 8 7 7 7 7 6 7 8 7 8 8 8 8 9 9 8 9 10 12 11 11 12 12 13 15 13 14 16 15 15 14 12 11 12 13 14 15 15 15 17 20 17 16 10 14 17 14 9 9 9 10 12 15 17 17 16 15 15
3 3 3 3 3 2 2 2 3 3 3 3 3 3 3 3 4 4 4 6 7 6 8 8 6 7 8 9 8 8 7 8 7 7 7 8 8 9 9 9 9 9 9 9 10 10 10 11 13 15 17 16 14 14 17 16 15 14 14 12 13 13 13 14 14 12 12 10 10 15 12 11 13 18 17 11 10 10 11 14 17 17 17 16 15
Wind_Direction
341 332 324 347 355 14 17 21 24 25 30 23 13 1 0 330 318 286 276 260 275 269 259 253 262 266 270 273 281 291 289 288 293 298 295 296 302 305 307 309 312 313 313 310 306 304 301 301 299 300 300 301 303 301 302 306 315 306 303 307 298 256 252 247 252 243 235 230 247 257 262 260 257 248 232 231 239 209 181 180 170 172 177 183 182
305 318 331 353 8 13 15 20 25 28 29 29 33 27 23 13 352 352 326 316 298 274 261 274 275 280 285 294 295 292 298 305 301 295 287 285 287 287 292 296 299 302 304 305 305 305 303 300 299 296 293 292 294 298 302 306 311 305 298 304 304 286 260 250 251 245 237 232 232 249 266 270 259 248 237 232 237 215 189 185 174 169 179 196 177
302 339 356 -0 3 15 21 23 26 27 28 29 30 31 31 32 25 11 353 332 327 321 317 305 287 276 279 283 283 279 280 276 272 283 286 279 272 276 276 275 281 289 289 291 294 297 299 299 299 297 295 294 292 291 294 299 300 295 289 296 299 296 280 266 260 256 251 238 232 240 254 256 251 246 239 232 231 216 192 187 179 177 183 192 175
354 357 346 349 352 6 26 30 32 32 32 33 31 30 32 34 34 30 26 12 353 333 319 320 322 310 301 299 294 282 272 279 291 295 296 290 278 270 266 269 272 270 273 280 286 289 292 295 298 298 298 297 296 294 289 286 290 288 276 278 292 301 299 291 265 253 243 236 233 236 242 229 243 245 236 227 225 213 191 189 190 186 185 188 180
357 345 345 344 354 1 25 33 37 40 39 38 35 33 33 32 33 35 34 32 26 17 358 340 332 340 340 322 311 304 303 302 295 287 277 280 283 279 285 287 277 267 269 276 281 288 293 296 297 299 301 297 291 293 294 290 285 279 263 264 275 294 302 297 281 262 254 241 238 238 232 207 217 235 233 228 226 209 190 187 195 192 190 184 182
345 343 351 354 356 4 24 35 40 42 43 43 41 39 35 33 33 31 30 30 30 29 25 16 10 4 357 353 343 333 330 323 313 292 288 281 280 288 284 287 288 296 299 283 283 294 292 295 298 299 299 297 293 281 281 288 292 286 270 265 266 271 279 285 280 265 259 251 251 234 221 216 216 232 233 232 228 207 191 190 195 200 195 185 184
346 345 356 359 357 9 27 35 39 42 43 43 44 42 41 38 35 34 31 29 28 27 26 23 20 16 13 7 360 353 346 343 334 326 316 310 306 291 282 271 272 273 273 282 284 278 284 292 298 299 298 298 295 290 286 285 284 289 285 268 270 270 269 264 275 269 258 261 251 234 224 216 220 222 233 237 233 210 200 195 197 202 197 189 186
359 6 358 359 356 16 32 38 41 44 43 42 42 42 41 40 39 38 35 31 30 28 25 22 22 20 20 18 13 10 5 2 356 348 336 321 318 310 289 274 272 273 274 275 281 281 283 288 287 289 293 296 296 295 289 283 288 287 286 275 267 266 265 260 254 263 259 253 250 238 239 228 226 227 229 232 233 217 203 200 199 206 197 191 184
14 3 2 358 357 26 36 39 41 43 44 43 41 40 39 39 38 36 35 34 33 30 27 25 23 20 19 20 18 16 13 13 9 2 351 344 337 326 323 312 300 293 291 287 284 285 286 288 291 291 292 295 296 296 292 289 294 292 292 289 274 260 258 259 250 251 261 252 245 244 241 239 232 244 245 232 234 223 216 202 204 206 197 191 183
11 10 8 360 359 29 37 40 41 40 42 41 40 39 38 37 36 35 34 34 32 31 30 27 26 24 22 20 17 15 14 14 13 11 7 359 350 345 336 330 320 314 309 301 292 286 286 290 291 293 294 293 292 294 295 296 290 288 284 283 283 272 258 251 249 246 246 247 237 242 244 234 218 235 248 242 230 219 224 209 208 213 207 184 184
18 14 10 5 4 32 37 39 41 40 40 39 39 39 39 38 36 35 33 33 32 31 30 29 27 25 23 20 18 17 15 13 14 10 10 9 5 359 353 344 332 331 325 316 303 294 294 293 291 293 294 294 295 295 297 299 292 288 285 281 277 275 269 261 255 249 241 236 236 234 241 235 229 216 232 237 232 221 235 232 232 221 207 193 185
20 12 12 10 7 31 37 40 40 40 40 40 39 38 37 36 36 36 34 32 32 31 30 29 27 25 23 22 21 20 18 15 15 11 10 9 7 5 3 359 353 347 339 325 315 313 308 300 294 296 296 294 288 291 293 281 275 276 281 282 280 276 271 261 251 255 248 233 231 234 238 236 239 241 232 231 229 215 209 226 230 224 214 206 191
20 17 14 13 13 26 37 38 39 40 40 41 41 41 39 37 35 34 33 33 32 31 30 29 27 25 23 23 22 20 20 19 17 16 13 11 9 6 5 1 356 352 347 343 335 323 312 306 301 301 301 299 295 286 283 283 276 277 277 274 272 278 275 262 249 241 239 234 232 225 233 235 238 242 243 237 229 218 210 215 214 214 207 211 200
30 18 15 13 17 19 32 37 38 39 41 41 41 41 40 39 37 36 34 33 33 32 30 29 27 25 25 25 22 21 20 19 19 17 15 13 10 9 6 2 0 355 350 348 343 338 331 324 318 309 304 303 302 297 285 276 275 276 274 270 263 261 268 263 247 245 239 234 232 227 230 231 234 237 241 239 231 227 224 220 215 215 210 212 207
45 24 13 16 15 19 22 32 35 36 37 38 39 38 38 38 37 36 36 35 34 33 31 30 27 26 26 25 23 20 18 18 17 16 16 15 13 10 5 3 2 360 2 1 356 348 339 336 335 330 316 310 305 299 293 283 276 274 274 273 268 250 251 253 249 235 234 231 233 233 228 227 233 236 236 242 238 219 227 219 213 218 217 208 205
46 36 25 24 23 24 22 23 32 32 34 33 35 36 36 36 36 36 35 35 35 34 32 29 28 26 26 25 23 21 18 16 15 14 14 14 13 10 5 3 2 360 358 358 356 355 353 348 344 339 335 327 315 304 293 286 279 274 272 274 273 261 247 245 243 237 232 232 233 233 232 228 231 234 232 235 240 227 225 223 216 215 219 210 205
35 30 42 28 25 24 28 27 29 32 30 30 29 33 33 34 35 35 35 35 33 33 32 31 29 27 26 25 23 20 19 17 15 13 12 12 11 8 4 3 1 359 358 355 354 353 351 350 348 344 341 335 326 313 302 292 284 276 273 273 273 270 257 241 238 235 229 227 227 233 236 232 232 233 230 227 236 231 219 229 223 219 222 216 206
33 39 38 32 25 23 29 30 29 28 28 26 21 25 32 31 32 33 35 35 34 33 32 30 28 28 27 25 23 21 18 16 15 13 12 11 9 6 1 0 -0 360 358 355 353 351 351 351 350 347 344 340 333 326 316 306 295 284 276 272 269 269 262 243 233 230 224 227 235 240 247 241 240 239 233 226 233 235 224 224 231 225 221 224 214
38 36 38 33 24 24 28 30 33 31 28 27 26 13 25 26 28 30 31 32 34 33 33 31 27 25 23 23 22 21 17 14 13 11 11 10 8 5 359 359 358 358 357 354 352 351 350 348 347 345 344 342 339 335 330 321 310 298 286 275 270 268 262 250 234 229 228 235 237 238 242 240 238 236 239 235 230 230 233 228 232 232 224 220 220
32 36 34 23 26 34 26 31 33 29 27 28 23 20 15 24 19 22 26 28 29 29 30 29 26 22 22 19 16 17 16 13 9 7 8 6 4 2 -0 359 358 358 355 352 351 350 347 345 344 344 344 344 343 338 330 321 310 300 292 283 272 267 267 249 235 230 231 237 235 235 241 241 243 240 238 239 231 230 229 228 226 229 227 222 217
22 28 34 17 24 35 25 31 26 20 22 22 24 17 12 21 12 11 14 19 20 20 18 15 19 15 20 17 19 15 12 7 3 6 7 1 358 358 358 359 358 357 354 351 348 347 346 343 342 343 345 346 346 341 335 327 319 307 296 289 277 266 261 255 241 239 236 238 240 239 240 243 240 241 241 238 237 228 231 220 233 236 229 241 229
14 7 10 19 25 25 27 29 18 11 12 16 17 10 11 11 8 3 1 7 3 12 3 7 5 9 9 14 16 14 12 7 1 359 1 359 356 357 357 356 355 355 351 350 347 345 343 341 342 343 344 346 346 344 338 330 324 312 299 286 278 268 257 250 243 246 247 243 242 243 240 241 241 241 240 238 237 233 231 224 223 232 219 225 228
16 9 0 8 16 21 23 22 14 6 6 10 9 5 11 5 1 1 355 357 358 0 359 359 3 4 4 8 11 9 5 2 1 357 356 351 351 353 355 356 354 351 348 348 344 343 341 340 340 341 342 341 342 338 333 329 326 323 307 292 277 271 264 248 244 243 245 244 244 243 242 241 239 240 239 239 236 234 235 217 218 226 213 228 225
356 339 328 352 14 16 9 20 10 359 14 1 7 6 7 3 359 357 354 349 354 352 351 356 3 3 4 4 6 0 0 358 353 354 354 355 352 350 350 351 350 348 345 344 340 337 338 335 336 338 339 336 334 330 327 324 325 322 317 304 284 270 259 256 248 246 243 247 249 249 247 245 241 237 240 241 237 234 231 226 219 216 216 223 220
242 251 15 350 343 11 6 8 357 9 13 5 7 0 360 359 356 354 352 355 353 350 353 359 1 5 3 4 1 359 356 356 354 353 354 351 350 350 349 350 346 344 343 341 337 331 332 331 333 334 333 332 330 327 326 325 321 320 319 316 306 284 267 253 253 251 244 245 247 251 252 250 245 242 241 244 243 235 236 233 220 213 212 212 216
285 51 344 335 342 354 21 359 6 5 15 10 4 350 1 359 352 348 351 349 355 352 356 359 3 2 0 1 0 3 2 357 353 354 352 351 349 349 347 343 342 340 342 337 333 329 328 325 327 328 326 327 323 320 320 318 316 317 314 312 309 304 289 270 251 250 246 242 246 245 252 251 247 243 242 244 247 242 231 237 228 219 216 211 213
355 354 334 323 336 357 7 8 8 1 1 5 358 3 359 349 345 339 353 339 346 347 347 347 350 349 357 359 7 1 0 0 356 352 352 350 345 344 342 340 338 335 337 335 329 326 322 322 321 321 321 319 320 317 316 314 313 311 309 307 306 302 296 281 263 254 252 244 245 239 246 253 248 244 242 246 247 246 239 235 241 231 217 215 211
26 321 328 330 335 350 355 9 358 4 353 354 357 355 345 347 335 342 341 327 337 334 328 328 331 345 352 355 5 4 1 357 353 352 350 346 344 337 334 334 334 330 328 329 325 323 320 317 315 315 318 317 314 316 314 314 312 308 305 305 305 302 298 292 274 255 249 246 244 243 238 249 253 243 243 243 246 247 244 235 234 239 222 214 215
72 307 300 332 328 331 359 4 359 360 345 347 351 330 338 340 340 338 331 319 327 316 315 321 334 338 342 349 355 356 357 359 355 346 338 343 339 339 338 335 332 328 329 325 323 320 319 317 314 310 313 312 310 311 312 310 307 306 302 302 301 300 298 295 289 271 259 252 244 245 240 239 249 249 241 244 247 247 246 240 236 233 238 231 215
195 246 287 286 302 349 6 356 350 329 335 354 338 346 341 346 334 331 316 324 318 313 317 323 318 330 335 346 349 355 357 356 348 344 350 340 337 335 336 335 333 331 331 325 323 317 314 314 310 307 305 304 305 305 307 306 306 303 301 297 297 297 295 296 292 282 264 257 248 242 242 240 241 247 242 241 245 248 249 243 234 236 232 236 230
167 271 277 293 319 5 352 354 359 357 2 8 338 339 340 346 325 319 319 318 315 319 319 314 321 326 334 343 348 360 0 357 354 347 347 343 341 342 340 336 334 334 331 323 322 318 310 303 304 304 303 300 296 297 300 300 300 303 300 295 294 295 296 295 294 292 283 262 253 247 246 246 243 243 244 240 242 246 247 247 242 234 228 231 234
167 231 251 300 351 356 336 359 5 359 15 352 346 338 337 325 318 323 321 319 328 324 322 322 320 326 337 353 5 7 359 350 351 348 352 349 346 346 338 338 334 332 333 329 323 318 311 304 297 293 291 293 293 289 286 290 294 295 297 295 294 291 291 294 293 293 289 278 266 258 249 247 248 244 243 240 240 243 245 243 244 240 235 226 231
224 197 258 356 344 331 7 346 4 7 4 341 327 316 319 321 318 320 318 328 327 326 325 324 321 328 346 4 21 359 351 359 0 3 359 353 343 336 335 331 328 330 328 324 321 318 315 312 306 299 293 287 287 289 284 279 284 287 291 292 295 289 288 288 287 289 289 286 271 260 251 245 248 249 244 240 237 239 241 242 241 237 237 228 230
185 134 83 36 338 353 8 346 5 356 332 326 320 318 309 306 310 314 319 329 323 324 317 313 315 324 340 2 17 353 3 11 9 3 354 347 341 336 332 328 328 327 324 322 320 318 311 311 310 311 304 299 294 287 288 285 280 280 280 289 289 290 291 285 283 283 285 283 282 269 260 246 241 247 249 242 237 236 237 240 242 241 237 233 232
134 80 107 273 358 340 351 345 332 320 317 310 301 299 298 302 308 309 312 323 316 313 300 304 305 306 320 4 15 7 14 13 6 357 341 336 331 327 326 326 326 326 322 322 318 316 312 308 308 303 301 301 297 291 289 284 286 284 280 280 282 291 289 285 283 281 278 280 277 273 265 257 245 243 248 248 240 233 236 236 240 241 237 231 231
176 181 209 44 14 299 263 232 294 280 278 270 280 289 287 295 299 303 314 305 303 293 290 293 297 305 332 8 18 14 7 2 354 346 338 333 330 327 324 325 328 325 323 319 318 314 315 309 305 303 301 293 296 296 292 290 288 284 281 276 277 280 285 285 282 278 277 276 275 273 265 257 248 242 242 246 243 236 229 233 235 238 238 232 228
178 172 189 182 234 266 259 245 257 249 273 286 303 299 300 297 294 295 287 290 288 281 283 290 301 308 328 11 23 8 351 351 347 344 346 333 331 329 324 325 326 324 318 316 313 313 312 308 304 300 292 294 291 285 290 291 291 288 286 278 275 277 272 278 283 280 279 271 270 269 269 260 252 242 240 243 244 242 233 228 231 233 236 235 232
188 184 188 183 200 218 236 233 238 250 242 261 270 278 279 284 281 279 280 275 274 270 272 288 290 287 317 24 30 358 350 345 344 344 340 336 333 328 326 324 322 318 314 309 306 305 304 307 306 307 306 299 291 288 286 288 288 290 286 282 279 273 271 270 274 281 274 270 265 261 261 264 256 247 241 240 243 240 238 230 227 229 231 234 233
186 189 191 200 209 229 235 239 253 264 275 270 271 279 284 284 278 281 283 275 279 274 277 288 284 289 315 34 28 357 345 343 341 343 344 340 338 334 331 329 326 322 319 313 311 309 308 305 302 298 290 287 287 287 287 286 285 283 282 281 280 273 271 268 268 270 271 265 263 259 258 258 257 250 242 238 239 241 237 233 226 226 230 230 233
193 186 190 194 205 244 232 267 253 244 265 265 282 282 287 285 301 310 303 264 272 285 279 268 282 290 300 27 12 348 340 338 335 338 338 338 337 336 333 333 333 331 327 325 321 321 314 308 296 293 293 285 276 280 284 286 281 277 278 280 275 274 269 267 265 261 264 264 260 257 253 251 251 250 243 239 236 237 237 234 227 225 227 228 228
209 186 185 211 204 204 180 235 240 242 232 258 270 248 288 315 309 279 280 291 290 282 266 266 278 275 275 0 340 332 325 330 336 342 342 338 336 330 331 330 326 319 312 305 304 302 302 302 300 292 291 291 283 271 274 281 285 283 274 275 279 269 267 266 264 263 258 261 257 255 251 249 247 246 243 237 235 233 233 232 230 226 224 226 225
212 183 194 208 204 205 197 227 255 249 243 227 229 261 232 230 271 281 285 295 301 297 304 313 300 294 302 340 332 335 339 336 332 337 334 333 328 328 322 313 313 302 293 292 297 302 304 300 300 295 278 285 290 287 282 289 275 278 300 297 282 278 271 265 259 255 253 252 253 249 246 244 243 242 240 237 233 231 229 228 227 226 223 222 223
187 190 199 205 230 226 216 213 226 219 237 236 223 242 258 273 242 267 271 281 261 255 263 274 288 297 317 334 334 339 340 332 328 326 323 318 315 313 306 300 292 297 301 297 295 296 296 299 296 292 298 274 273 279 273 251 274 281 281 294 287 309 289 264 254 256 255 249 249 246 244 241 239 237 237 233 232 229 228 224 225 223 222 221 220
213 211 214 214 218 222 216 209 230 225 233 246 238 229 253 264 271 267 271 252 261 269 268 272 279 300 305 303 294 295 296 294 299 304 308 311 309 303 299 296 297 299 299 300 301 298 302 304 304 297 296 299 292 283 267 265 263 276 274 248 283 290 296 275 305 281 275 286 278 273 272 256 244 236 232 229 229 227 225 224 222 222 222 221 218
205 206 205 204 198 208 208 203 220 226 226 241 243 250 275 296 280 277 261 267 277 264 264 262 243 261 279 291 282 278 274 275 278 273 274 278 278 280 287 290 292 292 292 292 294 294 296 291 293 293 291 291 294 292 287 274 264 255 267 278 276 266 256 286 322 285 278 266 261 268 272 290 282 253 229 228 226 223 223 222 223 222 221 219 219
208 213 202 199 184 208 208 223 231 236 237 238 228 225 241 260 295 314 321 315 311 313 310 321 318 319 308 291 278 265 267 267 264 269 262 275 279 276 277 281 281 285 288 287 286 288 285 284 282 285 286 284 285 291 285 277 279 265 247 252 256 266 284 287 317 290 285 256 285 279 274 269 260 284 272 238 225 221 218 219 217 219 217 215 215
214 203 196 199 193 197 202 213 225 234 241 242 226 226 245 237 245 255 252 263 274 273 264 280 282 288 289 293 290 287 280 282 286 280 285 286 288 287 284 280 279 280 286 288 291 289 288 280 279 276 279 285 282 279 280 285 277 267 269 254 253 258 265 276 270 290 283 286 240 262 275 267 274 279 281 285 256 228 219 216 217 218 216 215 213
200 187 198 195 198 200 183 217 228 244 246 245 240 215 230 245 259 261 262 262 254 275 286 277 272 280 289 288 290 284 280 276 282 283 282 287 288 287 285 288 289 285 287 287 292 295 290 281 269 269 277 277 280 277 281 277 275 278 273 275 258 254 253 254 253 259 276 284 287 262 260 269 266 255 265 269 275 259 232 219 219 216 216 214 214
194 193 196 202 190 178 183 202 236 239 251 245 243 232 223 237 243 264 279 268 271 278 283 281 285 283 281 286 285 284 282 276 271 279 278 276 283 287 289 289 289 293 292 291 292 295 294 291 285 277 273 274 268 270 271 271 274 272 275 273 280 269 257 248 251 248 253 272 265 275 288 277 256 263 264 261 265 273 256 233 221 219 216 215 212
199 188 193 178 190 177 181 191 237 237 244 253 239 243 231 234 255 260 269 284 287 291 283 287 287 286 287 288 287 287 285 284 278 273 278 279 284 287 288 290 293 291 289 287 291 291 290 287 284 279 275 273 266 262 261 266 267 269 265 273 274 280 274 258 246 247 247 242 259 272 275 290 297 286 272 273 282 284 280 252 228 219 218 216 212
197 191 200 193 184 186 193 195 228 242 244 251 246 254 247 237 249 260 272 288 297 295 300 294 296 303 300 298 296 294 290 285 284 276 272 282 285 289 290 289 287 286 286 286 282 285 288 289 287 283 278 274 274 276 275 269 263 265 267 266 265 264 267 268 259 236 236 246 261 266 269 263 267 282 282 275 279 286 286 277 242 219 216 215 213